Tracking 19562 objects as of 24-Mar-2019
HD Live streaming from Space Station
objects crossing your sky now

COSMOS 1798

Track COSMOS 1798 now!
10-day predictions
COSMOS 1798 is classified as:


NORAD ID: 17142
Int'l Code: 1986-092E
Perigee: 1,434.5 km
Apogee: 1,480.2 km
Inclination: 74.0 °
Period: 114.9 minutes
Semi major axis: 7828 km
RCS: 0.6835 m2 (medium)
Launch date: November 21, 1986
Source: Commonwealth of Independent States (former USSR) (CIS)
Launch site: PLESETSK MISSILE AND SPACE COMPLEX (PKMTR)
aabbcc
Your satellite tracking list
Your tracking list is empty




NASA's NSSDC Master Catalog

Two Line Element Set (TLE):
1 17142U 86092E   19083.48043802 -.00000010  00000-0  37387-4 0  9994
2 17142  74.0120 128.2511 0029210 271.6246 196.6747 12.53430598479889
Source of the keplerian elements: AFSPC